Time,TemperatureF,DewpointF,PressureIn,WindDirection,WindDirectionDegrees,WindSpeedMPH,WindSpeedGustMPH,Humidity,HourlyPrecipIn,Conditions,Clouds,dailyrainin,SolarRadiationWatts/m^2,SoftwareType,DateUTC
2013-04-25 04:02:00,52.0,24.0,30.16,WNW,295,1.0,3.0,32,-99.99,,,-99.99,0.000000,,2013-04-25 10:02:00,
2013-04-25 04:12:00,52.0,24.0,30.16,NW,326,2.0,4.0,33,-99.99,,,-99.99,0.000000,,2013-04-25 10:12:00,
2013-04-25 04:22:00,52.0,24.0,30.16,NW,326,2.0,4.0,33,-99.99,,,-99.99,0.000000,,2013-04-25 10:22:00,
2013-04-25 04:32:00,52.0,24.0,30.16,North,359,4.0,5.0,34,-99.99,,,-99.99,0.000000,,2013-04-25 10:32:00,
2013-04-25 04:42:00,51.0,24.0,30.16,North,5,4.0,5.0,35,-99.99,,,-99.99,0.000000,,2013-04-25 10:42:00,
2013-04-25 04:53:00,51.0,24.0,30.16,North,5,4.0,5.0,35,-99.99,,,-99.99,0.000000,,2013-04-25 10:53:00,
2013-04-25 05:02:00,51.0,24.0,30.17,NNE,20,4.0,7.0,34,-99.99,,,-99.99,0.000000,,2013-04-25 11:02:00,
2013-04-25 05:12:00,51.0,25.0,30.17,NNE,24,3.0,7.0,36,-99.99,,,-99.99,0.000000,,2013-04-25 11:12:00,
2013-04-25 05:22:00,51.0,25.0,30.17,NNE,24,3.0,7.0,36,-99.99,,,-99.99,0.000000,,2013-04-25 11:22:00,
2013-04-25 05:32:00,51.0,25.0,30.17,NNE,24,3.0,7.0,36,-99.99,,,-99.99,0.000000,,2013-04-25 11:32:00,
2013-04-25 05:42:00,51.0,26.0,30.17,North,358,3.0,5.0,38,-99.99,,,-99.99,0.000000,,2013-04-25 11:42:00,
2013-04-25 05:52:00,51.0,26.0,30.17,North,358,3.0,5.0,38,-99.99,,,-99.99,0.000000,,2013-04-25 11:52:00,
2013-04-25 06:01:00,50.0,26.0,30.17,NNE,22,3.0,5.0,38,-99.99,,,-99.99,0.000000,,2013-04-25 12:01:00,
2013-04-25 06:12:00,50.0,26.0,30.17,ENE,58,2.0,4.0,38,-99.99,,,-99.99,0.000000,,2013-04-25 12:12:00,
2013-04-25 06:21:00,50.0,26.0,30.17,ENE,58,2.0,4.0,38,-99.99,,,-99.99,0.000000,,2013-04-25 12:21:00,
2013-04-25 06:32:00,48.0,26.0,30.17,NNW,340,5.0,7.0,40,-99.99,,,-99.99,0.000000,,2013-04-25 12:32:00,
2013-04-25 06:42:00,48.0,26.0,30.17,North,352,4.0,7.0,41,-99.99,,,-99.99,0.000000,,2013-04-25 12:42:00,
2013-04-25 06:52:00,48.0,26.0,30.17,North,352,4.0,7.0,41,-99.99,,,-99.99,0.000000,,2013-04-25 12:52:00,
2013-04-25 07:02:00,49.0,26.0,30.17,NE,35,5.0,8.0,40,-99.99,,,-99.99,2.090000,,2013-04-25 13:02:00,
2013-04-25 07:11:00,49.0,26.0,30.17,NNE,32,4.0,6.0,39,-99.99,,,-99.99,11.850000,,2013-04-25 13:11:00,
2013-04-25 07:21:00,49.0,26.0,30.17,NNE,32,4.0,6.0,39,-99.99,,,-99.99,11.850000,,2013-04-25 13:21:00,
2013-04-25 07:32:00,49.0,26.0,30.18,North,7,5.0,7.0,39,-99.99,,,-99.99,34.869999,,2013-04-25 13:32:00,
2013-04-25 07:42:00,51.0,26.0,30.19,North,2,3.0,6.0,37,-99.99,,,-99.99,69.730003,,2013-04-25 13:42:00,
2013-04-25 07:53:00,51.0,26.0,30.19,North,2,3.0,6.0,37,-99.99,,,-99.99,69.730003,,2013-04-25 13:53:00,
2013-04-25 08:02:00,52.0,26.0,30.20,ENE,60,3.0,7.0,36,-99.99,,,-99.99,66.940002,,2013-04-25 14:02:00,
2013-04-25 08:11:00,53.0,26.0,30.20,ENE,61,4.0,10.0,35,-99.99,,,-99.99,103.209999,,2013-04-25 14:11:00,
2013-04-25 08:21:00,53.0,26.0,30.20,ENE,61,4.0,10.0,35,-99.99,,,-99.99,103.209999,,2013-04-25 14:21:00,
2013-04-25 08:32:00,53.0,26.0,30.20,ESE,111,5.0,10.0,34,-99.99,,,-99.99,203.619995,,2013-04-25 14:32:00,
2013-04-25 08:42:00,53.0,26.0,30.20,ESE,106,5.0,9.0,34,-99.99,,,-99.99,186.190002,,2013-04-25 14:42:00,
2013-04-25 08:52:00,53.0,26.0,30.20,ESE,106,5.0,9.0,34,-99.99,,,-99.99,186.190002,,2013-04-25 14:52:00,
2013-04-25 09:02:00,53.0,26.0,30.20,ESE,106,5.0,9.0,34,-99.99,,,-99.99,186.190002,,2013-04-25 15:02:00,
2013-04-25 09:11:00,54.0,26.0,30.21,East,80,3.0,7.0,33,-99.99,,,-99.99,158.990005,,2013-04-25 15:11:00,
2013-04-25 09:21:00,54.0,26.0,30.21,East,80,3.0,7.0,33,-99.99,,,-99.99,158.990005,,2013-04-25 15:21:00,
2013-04-25 09:33:00,54.0,26.0,30.21,East,90,3.0,6.0,33,-99.99,,,-99.99,198.039993,,2013-04-25 15:33:00,
2013-04-25 09:42:00,55.0,26.0,30.22,ENE,78,1.0,6.0,32,-99.99,,,-99.99,256.619995,,2013-04-25 15:42:00,
2013-04-25 09:53:00,55.0,26.0,30.22,ENE,78,1.0,6.0,32,-99.99,,,-99.99,256.619995,,2013-04-25 15:53:00,
2013-04-25 10:02:00,55.0,26.0,30.22,ENE,78,1.0,6.0,32,-99.99,,,-99.99,256.619995,,2013-04-25 16:02:00,
2013-04-25 10:13:00,55.0,27.0,30.20,ESE,115,6.0,9.0,34,-99.99,,,-99.99,253.130005,,2013-04-25 16:13:00,
2013-04-25 10:24:00,55.0,27.0,30.20,ESE,115,6.0,9.0,34,-99.99,,,-99.99,253.130005,,2013-04-25 16:24:00,
2013-04-25 10:32:00,55.0,28.0,30.21,ESE,116,6.0,12.0,34,-99.99,,,-99.99,263.589996,,2013-04-25 16:32:00,
2013-04-25 10:42:00,56.0,28.0,30.21,ESE,114,5.0,11.0,34,-99.99,,,-99.99,361.920013,,2013-04-25 16:42:00,
2013-04-25 10:52:00,56.0,28.0,30.21,ESE,114,5.0,11.0,34,-99.99,,,-99.99,361.920013,,2013-04-25 16:52:00,
2013-04-25 11:02:00,57.0,29.0,30.21,SE,126,3.0,10.0,33,-99.99,,,-99.99,362.609985,,2013-04-25 17:02:00,
2013-04-25 11:11:00,58.0,29.0,30.20,SE,143,5.0,13.0,32,-99.99,,,-99.99,399.570007,,2013-04-25 17:11:00,
2013-04-25 11:22:00,58.0,29.0,30.20,SE,143,5.0,13.0,32,-99.99,,,-99.99,399.570007,,2013-04-25 17:22:00,
2013-04-25 11:32:00,59.0,29.0,30.20,SE,144,3.0,8.0,32,-99.99,,,-99.99,405.850006,,2013-04-25 17:32:00,
2013-04-25 11:42:00,59.0,29.0,30.20,East,89,4.0,9.0,31,-99.99,,,-99.99,434.440002,,2013-04-25 17:42:00,
2013-04-25 11:53:00,59.0,29.0,30.20,East,89,4.0,9.0,31,-99.99,,,-99.99,434.440002,,2013-04-25 17:53:00,
2013-04-25 12:01:00,59.0,29.0,30.20,East,89,4.0,9.0,31,-99.99,,,-99.99,434.440002,,2013-04-25 18:01:00,
2013-04-25 12:11:00,61.0,30.0,30.20,SE,143,3.0,7.0,30,-99.99,,,-99.99,398.179993,,2013-04-25 18:11:00,
2013-04-25 12:22:00,61.0,30.0,30.20,SE,143,3.0,7.0,30,-99.99,,,-99.99,398.179993,,2013-04-25 18:22:00,
2013-04-25 12:32:00,61.0,30.0,30.20,SE,143,3.0,7.0,30,-99.99,,,-99.99,398.179993,,2013-04-25 18:32:00,
2013-04-25 12:42:00,63.0,30.0,30.18,SSE,150,6.0,11.0,29,-99.99,,,-99.99,527.179993,,2013-04-25 18:42:00,
2013-04-25 12:53:00,63.0,30.0,30.18,SSE,150,6.0,11.0,29,-99.99,,,-99.99,527.179993,,2013-04-25 18:53:00,
2013-04-25 13:01:00,63.0,30.0,30.18,SSE,150,6.0,11.0,29,-99.99,,,-99.99,527.179993,,2013-04-25 19:01:00,
2013-04-25 13:12:00,64.0,30.0,30.17,SE,144,6.0,12.0,28,-99.99,,,-99.99,510.450012,,2013-04-25 19:12:00,
2013-04-25 13:21:00,64.0,30.0,30.17,SE,144,6.0,12.0,28,-99.99,,,-99.99,510.450012,,2013-04-25 19:21:00,
2013-04-25 13:31:00,65.0,31.0,30.16,SSE,150,7.0,12.0,27,-99.99,,,-99.99,666.650024,,2013-04-25 19:31:00,
2013-04-25 13:42:00,66.0,31.0,30.15,SE,142,8.0,17.0,27,-99.99,,,-99.99,706.400024,,2013-04-25 19:42:00,
2013-04-25 13:52:00,66.0,31.0,30.15,SE,142,8.0,17.0,27,-99.99,,,-99.99,706.400024,,2013-04-25 19:52:00,
2013-04-25 14:02:00,66.0,32.0,30.15,SE,138,8.0,16.0,27,-99.99,,,-99.99,578.789978,,2013-04-25 20:02:00,
2013-04-25 14:11:00,66.0,32.0,30.15,SE,138,8.0,16.0,27,-99.99,,,-99.99,578.789978,,2013-04-25 20:11:00,
2013-04-25 14:22:00,66.0,32.0,30.15,SE,138,8.0,16.0,27,-99.99,,,-99.99,578.789978,,2013-04-25 20:22:00,
2013-04-25 14:32:00,68.0,32.0,30.13,SE,141,9.0,17.0,26,-99.99,,,-99.99,873.760010,,2013-04-25 20:32:00,
2013-04-25 14:42:00,69.0,32.0,30.12,SSE,155,10.0,19.0,25,-99.99,,,-99.99,719.650024,,2013-04-25 20:42:00,
2013-04-25 14:52:00,69.0,32.0,30.12,SSE,155,10.0,19.0,25,-99.99,,,-99.99,719.650024,,2013-04-25 20:52:00,
2013-04-25 15:01:00,70.0,32.0,30.11,SSE,152,9.0,18.0,24,-99.99,,,-99.99,686.179993,,2013-04-25 21:01:00,
2013-04-25 15:11:00,71.0,33.0,30.11,SSE,160,9.0,17.0,24,-99.99,,,-99.99,631.780029,,2013-04-25 21:11:00,
2013-04-25 15:22:00,71.0,33.0,30.11,SSE,160,9.0,17.0,24,-99.99,,,-99.99,631.780029,,2013-04-25 21:22:00,
2013-04-25 15:33:00,71.0,33.0,30.09,SSE,147,9.0,20.0,23,-99.99,,,-99.99,620.630005,,2013-04-25 21:33:00,
2013-04-25 15:42:00,73.0,32.0,30.08,SE,144,13.0,21.0,21,-99.99,,,-99.99,882.820007,,2013-04-25 21:42:00,
2013-04-25 15:53:00,73.0,32.0,30.08,SE,144,13.0,21.0,21,-99.99,,,-99.99,882.820007,,2013-04-25 21:53:00,
2013-04-25 16:02:00,74.0,31.0,30.06,SSE,167,15.0,23.0,19,-99.99,,,-99.99,828.429993,,2013-04-25 22:02:00,
2013-04-25 16:12:00,75.0,31.0,30.05,SSE,163,14.0,24.0,20,-99.99,,,-99.99,790.780029,,2013-04-25 22:12:00,
2013-04-25 16:22:00,75.0,31.0,30.05,SSE,163,14.0,24.0,20,-99.99,,,-99.99,790.780029,,2013-04-25 22:22:00,
2013-04-25 16:33:00,75.0,30.0,30.04,SSE,167,16.0,27.0,18,-99.99,,,-99.99,746.840027,,2013-04-25 22:33:00,
2013-04-25 16:42:00,76.0,29.0,30.03,South,173,15.0,24.0,17,-99.99,,,-99.99,700.119995,,2013-04-25 22:42:00,
2013-04-25 16:53:00,76.0,29.0,30.03,South,173,15.0,24.0,17,-99.99,,,-99.99,700.119995,,2013-04-25 22:53:00,
2013-04-25 17:02:00,77.0,27.0,30.02,South,172,14.0,24.0,16,-99.99,,,-99.99,628.299988,,2013-04-25 23:02:00,
2013-04-25 17:12:00,77.0,25.0,30.02,South,182,13.0,29.0,14,-99.99,,,-99.99,604.590027,,2013-04-25 23:12:00,
2013-04-25 17:22:00,77.0,25.0,30.02,South,182,13.0,29.0,14,-99.99,,,-99.99,604.590027,,2013-04-25 23:22:00,
2013-04-25 17:32:00,77.0,22.0,30.01,SSW,210,11.0,23.0,12,-99.99,,,-99.99,552.289978,,2013-04-25 23:32:00,
2013-04-25 17:42:00,78.0,19.0,30.01,SW,234,11.0,22.0,10,-99.99,,,-99.99,497.899994,,2013-04-25 23:42:00,
2013-04-25 17:52:00,78.0,19.0,30.01,SW,234,11.0,22.0,10,-99.99,,,-99.99,497.899994,,2013-04-25 23:52:00,
2013-04-25 18:01:00,78.0,19.0,30.01,SW,223,11.0,30.0,11,-99.99,,,-99.99,436.529999,,2013-04-26 00:01:00,
2013-04-25 18:11:00,78.0,20.0,30.00,SW,229,13.0,33.0,11,-99.99,,,-99.99,375.859985,,2013-04-26 00:11:00,
2013-04-25 18:21:00,78.0,20.0,30.00,SW,229,13.0,33.0,11,-99.99,,,-99.99,375.859985,,2013-04-26 00:21:00,
2013-04-25 18:32:00,78.0,19.0,30.00,SW,217,13.0,27.0,10,-99.99,,,-99.99,320.079987,,2013-04-26 00:32:00,
2013-04-25 18:41:00,78.0,18.0,30.00,SW,214,12.0,25.0,10,-99.99,,,-99.99,267.079987,,2013-04-26 00:41:00,
2013-04-25 18:52:00,78.0,18.0,30.00,SW,214,12.0,25.0,10,-99.99,,,-99.99,267.079987,,2013-04-26 00:52:00,
2013-04-25 19:01:00,78.0,19.0,29.99,SSW,210,12.0,26.0,10,-99.99,,,-99.99,203.619995,,2013-04-26 01:01:00,
2013-04-25 19:11:00,78.0,18.0,29.99,SSW,211,14.0,30.0,10,-99.99,,,-99.99,171.539993,,2013-04-26 01:11:00,
2013-04-25 19:21:00,78.0,18.0,29.99,SSW,211,14.0,30.0,10,-99.99,,,-99.99,171.539993,,2013-04-26 01:21:00,
2013-04-25 19:31:00,78.0,17.0,29.99,SSW,203,15.0,28.0,10,-99.99,,,-99.99,136.679993,,2013-04-26 01:31:00,
2013-04-25 19:42:00,78.0,17.0,29.99,SSW,203,15.0,28.0,10,-99.99,,,-99.99,136.679993,,2013-04-26 01:42:00,
2013-04-25 19:52:00,78.0,17.0,29.99,SSW,203,15.0,28.0,10,-99.99,,,-99.99,136.679993,,2013-04-26 01:52:00,
2013-04-25 20:02:00,78.0,10.0,30.00,WSW,240,14.0,42.0,7,-99.99,,,-99.99,35.560001,,2013-04-26 02:02:00,
2013-04-25 20:11:00,78.0,6.0,30.00,WSW,244,15.0,36.0,6,-99.99,,,-99.99,10.460000,,2013-04-26 02:11:00,
2013-04-25 20:21:00,78.0,6.0,30.00,WSW,244,15.0,36.0,6,-99.99,,,-99.99,10.460000,,2013-04-26 02:21:00,
2013-04-25 20:32:00,77.0,5.0,30.01,WSW,249,13.0,28.0,6,-99.99,,,-99.99,1.390000,,2013-04-26 02:32:00,
2013-04-25 20:42:00,76.0,4.0,30.01,West,260,12.0,32.0,5,-99.99,,,-99.99,0.000000,,2013-04-26 02:42:00,
2013-04-25 20:52:00,76.0,4.0,30.01,West,260,12.0,32.0,5,-99.99,,,-99.99,0.000000,,2013-04-26 02:52:00,
2013-04-25 21:01:00,75.0,3.0,30.02,West,259,17.0,42.0,5,-99.99,,,-99.99,0.000000,,2013-04-26 03:01:00,
2013-04-25 21:11:00,75.0,2.0,30.02,West,260,16.0,38.0,5,-99.99,,,-99.99,0.000000,,2013-04-26 03:11:00,
2013-04-25 21:21:00,75.0,2.0,30.02,West,260,16.0,38.0,5,-99.99,,,-99.99,0.000000,,2013-04-26 03:21:00,
2013-04-25 21:33:00,75.0,3.0,30.03,WSW,257,15.0,39.0,5,-99.99,,,-99.99,0.000000,,2013-04-26 03:33:00,
2013-04-25 21:43:00,75.0,4.0,30.03,WSW,254,16.0,32.0,6,-99.99,,,-99.99,0.000000,,2013-04-26 03:43:00,
2013-04-25 21:53:00,75.0,4.0,30.03,WSW,254,16.0,32.0,6,-99.99,,,-99.99,0.000000,,2013-04-26 03:53:00,
2013-04-25 22:02:00,75.0,4.0,30.03,WSW,254,16.0,32.0,6,-99.99,,,-99.99,0.000000,,2013-04-26 04:02:00,
2013-04-25 22:12:00,73.0,5.0,30.04,West,265,18.0,31.0,6,-99.99,,,-99.99,0.000000,,2013-04-26 04:12:00,
2013-04-25 22:23:00,73.0,5.0,30.04,West,265,18.0,31.0,6,-99.99,,,-99.99,0.000000,,2013-04-26 04:23:00,
2013-04-25 22:32:00,73.0,6.0,30.05,West,269,16.0,26.0,7,-99.99,,,-99.99,0.000000,,2013-04-26 04:32:00,
2013-04-25 22:43:00,72.0,7.0,30.06,West,278,16.0,25.0,7,-99.99,,,-99.99,0.000000,,2013-04-26 04:43:00,
2013-04-25 22:53:00,72.0,7.0,30.06,West,278,16.0,25.0,7,-99.99,,,-99.99,0.000000,,2013-04-26 04:53:00,
2013-04-25 23:02:00,71.0,7.0,30.06,West,280,16.0,25.0,8,-99.99,,,-99.99,0.000000,,2013-04-26 05:02:00,
2013-04-25 23:12:00,70.0,7.0,30.06,WNW,284,17.0,25.0,8,-99.99,,,-99.99,0.000000,,2013-04-26 05:12:00,
2013-04-25 23:22:00,70.0,7.0,30.06,WNW,284,17.0,25.0,8,-99.99,,,-99.99,0.000000,,2013-04-26 05:22:00,
2013-04-25 23:32:00,68.0,7.0,30.07,WNW,288,15.0,24.0,8,-99.99,,,-99.99,0.000000,,2013-04-26 05:32:00,
2013-04-25 23:42:00,68.0,7.0,30.07,WNW,289,16.0,25.0,9,-99.99,,,-99.99,0.000000,,2013-04-26 05:42:00,
2013-04-25 23:52:00,68.0,7.0,30.07,WNW,289,16.0,25.0,9,-99.99,,,-99.99,0.000000,,2013-04-26 05:52:00,